Location: Waldport
(44.4270°N, 124.0680°W)
Time: 18:37:39
(UTC-07:00)

Meteor 1-26 Rocket - Visible Passes

Search period start: 22 October 2014 00:00
Search period end: 01 November 2014 00:00
Orbit: 823 x 913 km, 81.3° (Epoch: 22 October)

Date Brightness Start Highest point End Pass type
(mag) Time Alt. Az. Time Alt. Az. Time Alt. Az.
22 Oct 7.4 06:19:07 10° NE 06:20:08 10° ENE 06:21:10 10° ENE visible
23 Oct 7.3 06:12:04 10° NE 06:13:21 11° ENE 06:14:39 10° ENE visible
24 Oct 7.3 06:05:04 10° NE 06:06:34 11° ENE 06:08:05 10° ENE visible
25 Oct 7.3 05:58:06 10° NE 05:59:47 11° ENE 06:01:29 10° ENE visible
26 Oct 7.3 05:51:09 10° NE 05:53:00 11° ENE 05:54:52 10° ENE visible
26 Oct 6.3 20:45:18 10° S 20:56:06 12° NNE 20:56:30 10° NNE visible
27 Oct 7.3 05:44:13 10° NE 05:46:13 12° ENE 05:48:14 10° ENE visible
27 Oct 4.7 20:38:28 10° S 20:48:02 20° NNE 20:49:41 10° NNE visible
27 Oct 7.0 22:30:16 13° NW 22:30:16 13° NW 22:31:17 10° NNW visible
28 Oct 7.2 05:37:17 10° NE 05:39:26 12° ENE 05:41:35 10° E visible
28 Oct 5.9 18:53:22 10° E 18:54:55 11° E 18:56:28 10° ENE visible
28 Oct 4.0 20:31:38 10° S 20:37:11 85° E 20:42:53 10° NNE visible
28 Oct 6.8 22:18:14 10° W 22:21:19 15° WNW 22:24:26 10° NNW visible
29 Oct 7.2 05:30:23 10° NE 05:32:39 12° ENE 05:34:56 10° E visible
29 Oct 4.7 07:11:06 10° N 07:17:01 75° ENE 07:22:57 10° SSE visible
29 Oct 5.9 18:46:21 10° E 18:48:05 11° E 18:49:49 10° ENE visible
29 Oct 4.1 20:24:49 10° S 20:30:22 86° E 20:36:05 10° NNE visible
29 Oct 6.9 22:11:29 10° W 22:14:31 15° WNW 22:17:36 10° NNW visible
30 Oct 7.2 05:23:29 10° NE 05:25:52 12° ENE 05:28:16 10° E visible
30 Oct 4.6 07:04:17 10° N 07:10:13 76° E 07:16:10 10° SSE visible
30 Oct 5.9 18:39:22 10° E 18:41:15 12° E 18:43:09 10° ENE visible
30 Oct 4.1 20:17:59 10° S 20:23:33 88° E 20:29:17 10° N visible
30 Oct 6.9 22:04:45 10° W 22:07:43 14° WNW 22:10:45 10° NNW visible
31 Oct 7.2 05:16:35 10° NNE 05:19:05 13° ENE 05:21:36 10° E visible
31 Oct 4.6 06:57:29 10° N 07:03:25 77° E 07:09:22 10° SSE visible
31 Oct 5.8 18:32:23 10° ESE 18:34:25 12° E 18:36:29 10° ENE visible
31 Oct 4.1 20:11:10 10° S 20:16:44 89° E 20:22:29 10° N visible
31 Oct 6.9 21:58:00 10° W 22:00:56 14° WNW 22:03:54 10° NNW visible
